San Luis Obispo, CA

4:19 AM PST on January 24, 2018 (GMT -0800)
San Luis Obispo County-McChesney

Weather History for KSBP - May, 2013

Change the Weather History Date:

Saturday, May 4, 2013

  Actual Average Record
Temperature  
Mean Temperature 60 °F -  
Max Temperature 73 °F 71 °F 91 °F (2011)
Min Temperature 48 °F 47 °F 36 °F (1964)
Degree Days  
Heating Degree Days 6    
Growing Degree Days 10 (Base 50)    
Moisture  
Dew Point 50 °F    
Average Humidity 82    
Maximum Humidity 100    
Minimum Humidity 44    
Precipitation  
Precipitation 0.00 in - - ()
Sea Level Pressure  
Sea Level Pressure 29.77 in    
Wind  
Wind Speed 4 mph (SW)    
Max Wind Speed 12 mph    
Max Gust Speed -    
Visibility 7 miles    
Events Fog    
Averages and records for this station are not official NWS values.
T = Trace of Precipitation, MM = Missing Value Source: NWS Daily Summary

Daily Weather History Graph

Daily Weather History Graph

Search for Another Location

Airport or City:

Trip Planner

Search our weather history database for the weather conditions in past years. The results will help you decide how hot, cold, wet, or windy it might be!

Date:

Astronomy

May. 04, 2013 Rise Set
Actual Time 6:07 AM PDT 7:51 PM PDT
Civil Twilight 5:40 AM PDT 8:18 PM PDT
Nautical Twilight 5:07 AM PDT 8:51 PM PDT
Astronomical Twilight 4:32 AM PDT 9:26 PM PDT
Moon 2:57 AM PDT (5/4) 3:04 PM PDT (5/4)
Length of Visible Light 14h 38m
Length of Day
13h 43m
Waning Crescent, 26% of the Moon is Illuminated
May 4
Waning Crescent
May 9
New
May 17
First Quarter
May 24
Full
May 31
Last Quarter

Hourly Weather History & Observations

Time (PDT) Temp. Dew Point Humidity Pressure Visibility Wind Dir Wind Speed Gust Speed Precip Events Conditions
12:56 AM 54.0 °F 45.0 °F 72% 29.81 in 10.0 mi East 3.5 mph - N/A   Clear
1:56 AM 52.0 °F 48.0 °F 86% 29.80 in 9.0 mi WNW 3.5 mph - N/A   Clear
2:56 AM 51.1 °F 46.0 °F 83% 29.78 in 9.0 mi Calm Calm - N/A   Clear
3:56 AM 50.0 °F 45.0 °F 83% 29.76 in 9.0 mi Calm Calm - N/A   Clear
4:20 AM 48.2 °F 44.6 °F 87% 29.77 in 9.0 mi Calm Calm - N/A   Scattered Clouds
4:32 AM 48.2 °F 46.4 °F 93% 29.77 in 1.5 mi NW 3.5 mph - N/A   Mostly Cloudy
4:38 AM 48.2 °F 46.4 °F 93% 29.77 in 0.2 mi NNW 3.5 mph - N/A Fog Fog
4:46 AM 48.2 °F 48.2 °F 100% 29.77 in 0.2 mi WNW 3.5 mph - N/A Fog Fog
4:51 AM 48.2 °F 48.2 °F 100% 29.77 in 0.5 mi Calm Calm - N/A Fog Fog
4:56 AM 48.9 °F 48.0 °F 97% 29.77 in 1.5 mi Calm Calm - N/A   Overcast
5:49 AM 50.0 °F 50.0 °F 100% 29.77 in 1.5 mi NNW 4.6 mph - N/A   Overcast
5:56 AM 50.0 °F 50.0 °F 100% 29.77 in 2.0 mi Calm Calm - N/A   Overcast
6:56 AM 51.1 °F 50.0 °F 96% 29.77 in 2.0 mi Calm Calm - N/A   Overcast
7:56 AM 51.1 °F 50.0 °F 96% 29.78 in 4.0 mi Calm Calm - N/A   Overcast
8:56 AM 54.0 °F 50.0 °F 86% 29.78 in 3.0 mi Calm Calm - N/A   Overcast
9:08 AM 55.4 °F 50.0 °F 82% 29.78 in 8.0 mi Variable 3.5 mph - N/A   Overcast
9:31 AM 57.2 °F 50.0 °F 77% 29.78 in 9.0 mi SSE 6.9 mph - N/A   Scattered Clouds
9:56 AM 57.0 °F 50.0 °F 77% 29.79 in 10.0 mi South 11.5 mph - N/A   Partly Cloudy
10:56 AM 61.0 °F 50.0 °F 67% 29.78 in 10.0 mi Calm Calm - N/A   Clear
11:56 AM 68.0 °F 48.0 °F 49% 29.76 in 10.0 mi Variable 3.5 mph - N/A   Clear
12:56 PM 71.1 °F 48.0 °F 44% 29.74 in 10.0 mi West 6.9 mph - N/A   Clear
1:56 PM 68.0 °F 50.0 °F 52% 29.74 in 10.0 mi SW 11.5 mph - N/A   Clear
2:56 PM 66.0 °F 52.0 °F 60% 29.74 in 10.0 mi SW 9.2 mph - N/A   Clear
3:56 PM 64.0 °F 52.0 °F 65% 29.74 in 10.0 mi SW 9.2 mph - N/A   Clear
4:56 PM 62.1 °F 52.0 °F 70% 29.73 in 10.0 mi SW 8.1 mph - N/A   Clear
5:56 PM 60.1 °F 51.1 °F 72% 29.74 in 10.0 mi SW 8.1 mph - N/A   Mostly Cloudy
6:20 PM 57.2 °F 51.8 °F 82% 29.74 in 9.0 mi SW 9.2 mph - N/A   Mostly Cloudy
6:38 PM 57.2 °F 51.8 °F 82% 29.74 in 9.0 mi SW 9.2 mph - N/A   Overcast
6:56 PM 57.0 °F 51.1 °F 81% 29.74 in 10.0 mi South 6.9 mph - N/A   Overcast
7:56 PM 55.9 °F 51.1 °F 84% 29.75 in 9.0 mi SSW 3.5 mph - N/A   Overcast
8:56 PM 55.9 °F 52.0 °F 87% 29.76 in 7.0 mi South 5.8 mph - N/A   Overcast
9:56 PM 55.0 °F 52.0 °F 89% 29.78 in 6.0 mi SSE 5.8 mph - N/A   Overcast
10:56 PM 55.0 °F 53.1 °F 93% 29.78 in 5.0 mi South 6.9 mph - N/A   Overcast
11:56 PM 55.0 °F 52.0 °F 89% 29.78 in 5.0 mi South 5.8 mph - N/A   Overcast